This is the latest recevied weather packets stored in our database for station/object W5LND-10. If no packets are shown the sender has not sent any weather packets the latest 10 day(s).
| Time | Temp. | Humidity | Pressure | Rain* | Wind** | Luminosity | Snow |
|---|---|---|---|---|---|---|---|
| 1788563725 | 33.33° C | 38% | 1003.7 hPa | 0 mm | - | 188 W/m² | - |
| 1788563425 | 32.78° C | 39% | 1003.4 hPa | 0 mm | - | 186 W/m² | - |
| 1788563125 | 32.78° C | 40% | 1003.5 hPa | 0 mm | - | 146 W/m² | - |
| 1788562825 | 33.33° C | 39% | 1003.3 hPa | 0 mm | - | 132 W/m² | - |
| 1788562525 | 33.33° C | 40% | 1003.3 hPa | 0 mm | - | 404 W/m² | - |
| 1788562225 | 33.33° C | 40% | 1003.2 hPa | 0 mm | - | 260 W/m² | - |
| 1788561925 | 33.33° C | 40% | 1003.2 hPa | 0 mm | - | 329 W/m² | - |
| 1788561625 | 33.89° C | 39% | 1003.2 hPa | 0 mm | - | 130 W/m² | - |
| 1788561325 | 34.44° C | 37% | 1003.4 hPa | 0 mm | - | 167 W/m² | - |
| 1788561025 | 36.11° C | 34% | 1003.3 hPa | 0 mm | - | 188 W/m² | - |
| 1788560725 | 36.11° C | 29% | 1003.3 hPa | 0 mm | - | 278 W/m² | - |
| 1788560425 | 36.11° C | 29% | 1003.1 hPa | 0 mm | - | 276 W/m² | - |
| 1788560125 | 36.11° C | 30% | 1003.1 hPa | 0 mm | - | 264 W/m² | - |
| 1788559825 | 35.56° C | 31% | 1003.2 hPa | 0 mm | - | 204 W/m² | - |
| 1788559525 | 35.56° C | 30% | 1003.1 hPa | 0 mm | - | 239 W/m² | - |
| 1788559225 | 35.56° C | 29% | 1003.2 hPa | 0 mm | - | 214 W/m² | - |
| 1788558925 | 35.56° C | 30% | 1003.2 hPa | 0 mm | - | 227 W/m² | - |
| 1788558625 | 35.56° C | 30% | 1003.3 hPa | 0 mm | - | 234 W/m² | - |
| 1788558325 | 35.56° C | 29% | 1003.3 hPa | 0 mm | - | 223 W/m² | - |
| 1788558025 | 35.56° C | 27% | 1003.3 hPa | 0 mm | - | 279 W/m² | - |
| 1788557725 | 35° C | 29% | 1003.4 hPa | 0 mm | - | 381 W/m² | - |
| 1788557425 | 34.44° C | 30% | 1003.5 hPa | 0 mm | - | 387 W/m² | - |
| 1788557125 | 34.44° C | 33% | 1003.5 hPa | 0 mm | - | 338 W/m² | - |
| 1788556825 | 33.89° C | 35% | 1003.7 hPa | 0 mm | - | 299 W/m² | - |
| 1788556525 | 33.89° C | 35% | 1003.8 hPa | 0 mm | - | 306 W/m² | - |
* Rain latest hour (hover to see other rain measurements)
** Current wind speed in m/s (hover to see current wind gust speed)